Weather History for Poughkeepsie, NY

Change the Weather History Date:

Tuesday, February 26, 2013

  Actual Average Record
Temperature  
Mean Temperature 35 °F 31 °F  
Max Temperature 44 °F 42 °F 65 °F (1976)
Min Temperature 25 °F 20 °F -7 °F (1963)
Degree Days  
Heating Degree Days 30 34  
Month to date heating degree days 922 951  
Since 1 July heating degree days 4073 4503  
Cooling Degree Days 0 0  
Month to date cooling degree days 0 0  
Year to date cooling degree days 0 0  
Moisture  
Dew Point 26 °F    
Average Humidity 71    
Maximum Humidity 92    
Minimum Humidity 49    
Precipitation  
Precipitation 0.07 in 0.10 in 0.60 in (1972)
Month to date precipitation 0.86 2.45  
Year to date precipitation 2.91 5.53  
Sea Level Pressure  
Sea Level Pressure 30.20 in    
Wind  
Wind Speed 5 mph (ESE)    
Max Wind Speed 16 mph    
Max Gust Speed 22 mph    
Visibility 9 miles    
Events Rain    
T = Trace of Precipitation, MM = Missing Value Source: NWS Daily Summary

Daily Weather History Graph

Daily Weather History Graph

Search for Another Location

Airport:

Trip Planner

Search our weather history database for the weather conditions in past years. The results will help you decide how hot, cold, wet, or windy it might be!

Date:

Astronomy

Feb. 26, 2013 Rise Set
Actual Time 6:34 AM EST 5:42 PM EST
Civil Twilight 6:06 AM EST 6:10 PM EST
Nautical Twilight 5:34 AM EST 6:42 PM EST
Astronomical Twilight 5:02 AM EST 7:15 PM EST
Moon 6:58 PM EST (2/26) 6:34 AM EST (2/26)
Length of Visible Light 12h 04m
Length of Day
11h 08m
Full, 99% of the Moon is Illuminated
Feb 26
Full
Mar 4
Last Quarter
Mar 11
New
Mar 19
First Quarter
Mar 27
Full

Hourly Weather History & Observations

Time (EST) Temp. Windchill Dew Point Humidity Pressure Visibility Wind Dir Wind Speed Gust Speed Precip Events Conditions
12:53 AM 34.0 °F - 28.0 °F 79% 30.22 in 10.0 mi Calm Calm - N/A   Overcast
1:53 AM 33.1 °F - 27.0 °F 78% 30.25 in 9.0 mi Calm Calm - N/A   Mostly Cloudy
2:53 AM 28.9 °F - 26.1 °F 89% 30.25 in 8.0 mi Calm Calm - N/A   Clear
3:53 AM 28.0 °F - 24.1 °F 85% 30.25 in 8.0 mi Calm Calm - N/A   Clear
4:53 AM 28.0 °F - 25.0 °F 88% 30.26 in 8.0 mi Calm Calm - N/A   Mostly Cloudy
5:53 AM 26.1 °F - 24.1 °F 92% 30.26 in 7.0 mi Calm Calm - N/A   Clear
6:53 AM 25.0 °F - 23.0 °F 92% 30.27 in 10.0 mi Calm Calm - N/A   Clear
7:53 AM 30.0 °F - 26.1 °F 85% 30.28 in 10.0 mi Calm Calm - N/A   Clear
8:53 AM 34.0 °F - 28.0 °F 79% 30.28 in 8.0 mi Calm Calm - N/A   Clear
9:53 AM 37.9 °F - 28.0 °F 68% 30.29 in 10.0 mi Calm Calm - N/A   Scattered Clouds
10:53 AM 43.0 °F 40.3 °F 28.0 °F 56% 30.27 in 10.0 mi East 4.6 mph - N/A   Scattered Clouds
11:53 AM 43.0 °F 37.7 °F 25.0 °F 49% 30.27 in 10.0 mi SSE 9.2 mph - N/A   Mostly Cloudy
12:53 PM 43.0 °F 38.2 °F 25.0 °F 49% 30.24 in 10.0 mi ESE 8.1 mph - N/A   Overcast
1:53 PM 43.0 °F 40.3 °F 25.0 °F 49% 30.20 in 10.0 mi SE 4.6 mph - N/A   Overcast
2:53 PM 43.0 °F 37.7 °F 25.0 °F 49% 30.20 in 10.0 mi ESE 9.2 mph - N/A   Overcast
3:53 PM 41.0 °F 33.9 °F 25.0 °F 53% 30.18 in 10.0 mi ESE 12.7 mph - N/A   Overcast
4:53 PM 39.9 °F 34.5 °F 26.1 °F 58% 30.17 in 10.0 mi ESE 8.1 mph - N/A   Overcast
5:53 PM 39.0 °F 31.4 °F 26.1 °F 60% 30.15 in 10.0 mi ESE 12.7 mph 19.6 mph N/A   Mostly Cloudy
6:53 PM 37.9 °F 32.1 °F 27.0 °F 65% 30.16 in 10.0 mi East 8.1 mph - N/A   Overcast
7:53 PM 37.9 °F 30.5 °F 26.1 °F 62% 30.12 in 10.0 mi East 11.5 mph - N/A   Mostly Cloudy
8:53 PM 37.9 °F 32.1 °F 23.0 °F 55% 30.10 in 10.0 mi East 8.1 mph - N/A   Overcast
9:53 PM 37.0 °F 33.3 °F 21.9 °F 54% 30.06 in 10.0 mi East 4.6 mph 16.1 mph 0.00 in   Overcast
10:53 PM 35.1 °F 28.6 °F 26.1 °F 70% 30.03 in 4.0 mi East 8.1 mph - 0.03 in Rain Light Rain
11:53 PM 35.1 °F 27.4 °F 28.9 °F 78% 29.97 in 8.0 mi ENE 10.4 mph 17.3 mph 0.04 in Rain Light Rain